Location: Monfort
(47.1967°N, 0.2115°W)
Time: 10:59:53
(UTC+00:00)

Cosmos 1356 Rocket - Pass Details

Date: 24 October 2020
Orbit: 542 x 599 km, 81.2° (Epoch: 28 November)

Event Time Altitude Azimuth Distance (km) Brightness Sun altitude
Rises 17:19:44 0° 187° (S) 2,802 7.2 -4.6°
Reaches altitude 10° 17:21:55 10° 187° (S) 1,914 6.3 -5.0°
Maximum altitude 17:26:09 83° 101° (E) 607 3.5 -5.7°
Drops below altitude 10° 17:30:29 10° 13° (NNE) 1,948 5.9 -6.4°
Sets 17:32:43 0° 12° (NNE) 2,858 6.7 -6.8°
